IRIDIUM 153

Last updated on Sun Jun 21 2026 00:03:14 GMT+0000 (Coordinated Universal Time)

1 43078U 17083J 26171.36383584 .00000057 00000+0 13331-4 0 9994 2 43078 86.3962 289.1424 0002215 90.0153 270.1296 14.34217910445738
UTC large
Height (km)
Speed (km/s)
/
Latitude / Longitude
Inclination (degrees)
Orbital Period (minutes)
Azimuth
Elevation
Range (km)
Doppler Factor

Next 0 passes for location: London (51.5072 / 0.1276)

No passes found over London.
IRIDIUM 153